owner,sensor,date,latitude,longitude,air_temperature,qcFlag 
COMPS,ioos:station:USF.COMPS:C12:1,2019-01-01T00:05:00Z,27.4980,-83.7220,22.42,1111122 
COMPS,ioos:station:USF.COMPS:C12:1,2019-01-01T00:35:00Z,27.4980,-83.7220,22.49,1111122 
COMPS,ioos:station:USF.COMPS:C12:1,2019-01-01T01:05:00Z,27.4980,-83.7220,22.52,1111122 
COMPS,ioos:station:USF.COMPS:C12:1,2019-01-01T01:35:00Z,27.4980,-83.7220,22.5,1111122 
COMPS,ioos:station:USF.COMPS:C12:1,2019-01-01T02:05:00Z,27.4980,-83.7220,22.5,1111122 
COMPS,ioos:station:USF.COMPS:C12:1,2019-01-01T02:35:00Z,27.4980,-83.7220,22.49,1111122 
COMPS,ioos:station:USF.COMPS:C12:1,2019-01-01T03:05:00Z,27.4980,-83.7220,22.44,1111122 
COMPS,ioos:station:USF.COMPS:C12:1,2019-01-01T03:35:00Z,27.4980,-83.7220,22.5,1111122 
COMPS,ioos:station:USF.COMPS:C12:1,2019-01-01T04:05:00Z,27.4980,-83.7220,22.52,1111122 
COMPS,ioos:station:USF.COMPS:C12:1,2019-01-01T04:35:00Z,27.4980,-83.7220,22.49,1111122 
COMPS,ioos:station:USF.COMPS:C12:1,2019-01-01T05:05:00Z,27.4980,-83.7220,22.42,1111122 
COMPS,ioos:station:USF.COMPS:C12:1,2019-01-01T05:35:00Z,27.4980,-83.7220,22.29,1111122 
COMPS,ioos:station:USF.COMPS:C12:1,2019-01-01T06:05:00Z,27.4980,-83.7220,22.25,1111122 
COMPS,ioos:station:USF.COMPS:C12:1,2019-01-01T06:35:00Z,27.4980,-83.7220,22.18,1111122 
COMPS,ioos:station:USF.COMPS:C12:1,2019-01-01T07:05:00Z,27.4980,-83.7220,22.1,1111122 
COMPS,ioos:station:USF.COMPS:C12:1,2019-01-01T07:35:00Z,27.4980,-83.7220,22.06,1111122 
COMPS,ioos:station:USF.COMPS:C12:1,2019-01-01T08:05:00Z,27.4980,-83.7220,22.05,1111122 
COMPS,ioos:station:USF.COMPS:C12:1,2019-01-01T08:35:00Z,27.4980,-83.7220,22.04,1111122 
COMPS,ioos:station:USF.COMPS:C12:1,2019-01-01T09:05:00Z,27.4980,-83.7220,22.02,1111122 
COMPS,ioos:station:USF.COMPS:C12:1,2019-01-01T09:35:00Z,27.4980,-83.7220,21.92,1111122 
COMPS,ioos:station:USF.COMPS:C12:1,2019-01-01T10:05:00Z,27.4980,-83.7220,21.87,1111122 
COMPS,ioos:station:USF.COMPS:C12:1,2019-01-01T10:35:00Z,27.4980,-83.7220,21.78,1111122 
COMPS,ioos:station:USF.COMPS:C12:1,2019-01-01T11:05:00Z,27.4980,-83.7220,21.7,1111122 
COMPS,ioos:station:USF.COMPS:C12:1,2019-01-01T11:35:00Z,27.4980,-83.7220,21.6,1111122 
COMPS,ioos:station:USF.COMPS:C12:1,2019-01-01T12:05:00Z,27.4980,-83.7220,21.52,1111122 
COMPS,ioos:station:USF.COMPS:C12:1,2019-01-01T12:35:00Z,27.4980,-83.7220,21.46,1111122 
COMPS,ioos:station:USF.COMPS:C12:1,2019-01-01T13:05:00Z,27.4980,-83.7220,21.52,1111122 
COMPS,ioos:station:USF.COMPS:C12:1,2019-01-01T13:35:00Z,27.4980,-83.7220,21.66,1111122 
COMPS,ioos:station:USF.COMPS:C12:1,2019-01-01T14:05:00Z,27.4980,-83.7220,21.72,1111122 
COMPS,ioos:station:USF.COMPS:C12:1,2019-01-01T14:35:00Z,27.4980,-83.7220,21.89,1111122 
COMPS,ioos:station:USF.COMPS:C12:1,2019-01-01T15:05:00Z,27.4980,-83.7220,21.98,1111122 
COMPS,ioos:station:USF.COMPS:C12:1,2019-01-01T15:35:00Z,27.4980,-83.7220,22.03,1111122 
COMPS,ioos:station:USF.COMPS:C12:1,2019-01-01T16:05:00Z,27.4980,-83.7220,22.07,1111122 
COMPS,ioos:station:USF.COMPS:C12:1,2019-01-01T16:35:00Z,27.4980,-83.7220,22.04,1111122 
COMPS,ioos:station:USF.COMPS:C12:1,2019-01-01T17:05:00Z,27.4980,-83.7220,22.07,1111122 
COMPS,ioos:station:USF.COMPS:C12:1,2019-01-01T17:35:00Z,27.4980,-83.7220,22.02,1111122 
COMPS,ioos:station:USF.COMPS:C12:1,2019-01-01T18:05:00Z,27.4980,-83.7220,21.99,1111122 
COMPS,ioos:station:USF.COMPS:C12:1,2019-01-01T18:35:00Z,27.4980,-83.7220,22.17,1111122 
COMPS,ioos:station:USF.COMPS:C12:1,2019-01-01T19:05:00Z,27.4980,-83.7220,22.18,1111122 
COMPS,ioos:station:USF.COMPS:C12:1,2019-01-01T19:35:00Z,27.4980,-83.7220,22.13,1111122 
COMPS,ioos:station:USF.COMPS:C12:1,2019-01-01T20:05:00Z,27.4980,-83.7220,22.13,1111122 
COMPS,ioos:station:USF.COMPS:C12:1,2019-01-01T20:35:00Z,27.4980,-83.7220,22.27,1111122 
COMPS,ioos:station:USF.COMPS:C12:1,2019-01-01T21:05:00Z,27.4980,-83.7220,22.48,1111122 
COMPS,ioos:station:USF.COMPS:C12:1,2019-01-01T21:35:00Z,27.4980,-83.7220,22.29,1111122 
COMPS,ioos:station:USF.COMPS:C12:1,2019-01-01T22:05:00Z,27.4980,-83.7220,22.05,1111122 
COMPS,ioos:station:USF.COMPS:C12:1,2019-01-01T22:35:00Z,27.4980,-83.7220,21.92,1111122 
COMPS,ioos:station:USF.COMPS:C12:1,2019-01-01T23:05:00Z,27.4980,-83.7220,21.71,1111122 
COMPS,ioos:station:USF.COMPS:C12:1,2019-01-01T23:35:00Z,27.4980,-83.7220,21.52,1111122 
COMPS,ioos:station:USF.COMPS:C12:1,2019-01-02T00:05:00Z,27.4980,-83.7220,21.48,1111122 
COMPS,ioos:station:USF.COMPS:C12:1,2019-01-02T00:35:00Z,27.4980,-83.7220,21.44,1111122 
COMPS,ioos:station:USF.COMPS:C12:1,2019-01-02T01:05:00Z,27.4980,-83.7220,21.52,1111122 
COMPS,ioos:station:USF.COMPS:C12:1,2019-01-02T01:35:00Z,27.4980,-83.7220,21.72,1111122 
COMPS,ioos:station:USF.COMPS:C12:1,2019-01-02T02:05:00Z,27.4980,-83.7220,21.81,1111122 
COMPS,ioos:station:USF.COMPS:C12:1,2019-01-02T02:35:00Z,27.4980,-83.7220,21.98,1111122 
COMPS,ioos:station:USF.COMPS:C12:1,2019-01-02T03:05:00Z,27.4980,-83.7220,21.98,1111122 
COMPS,ioos:station:USF.COMPS:C12:1,2019-01-02T03:35:00Z,27.4980,-83.7220,22.09,1111122 
COMPS,ioos:station:USF.COMPS:C12:1,2019-01-02T04:05:00Z,27.4980,-83.7220,22.26,1111122 
COMPS,ioos:station:USF.COMPS:C12:1,2019-01-02T04:35:00Z,27.4980,-83.7220,22.06,1111122 
COMPS,ioos:station:USF.COMPS:C12:1,2019-01-02T05:05:00Z,27.4980,-83.7220,22.07,1111122 
COMPS,ioos:station:USF.COMPS:C12:1,2019-01-02T05:35:00Z,27.4980,-83.7220,22.0,1111122 
COMPS,ioos:station:USF.COMPS:C12:1,2019-01-02T06:05:00Z,27.4980,-83.7220,21.99,1111122 
COMPS,ioos:station:USF.COMPS:C12:1,2019-01-02T06:35:00Z,27.4980,-83.7220,21.91,1111122 
COMPS,ioos:station:USF.COMPS:C12:1,2019-01-02T07:05:00Z,27.4980,-83.7220,21.88,1111122 
COMPS,ioos:station:USF.COMPS:C12:1,2019-01-02T07:35:00Z,27.4980,-83.7220,21.72,1111122 
COMPS,ioos:station:USF.COMPS:C12:1,2019-01-02T08:05:00Z,27.4980,-83.7220,21.54,1111122 
COMPS,ioos:station:USF.COMPS:C12:1,2019-01-02T08:35:00Z,27.4980,-83.7220,21.42,1111122 
COMPS,ioos:station:USF.COMPS:C12:1,2019-01-02T09:05:00Z,27.4980,-83.7220,21.5,1111122 
COMPS,ioos:station:USF.COMPS:C12:1,2019-01-02T09:35:00Z,27.4980,-83.7220,21.56,1111122 
COMPS,ioos:station:USF.COMPS:C12:1,2019-01-02T10:05:00Z,27.4980,-83.7220,21.64,1111122 
COMPS,ioos:station:USF.COMPS:C12:1,2019-01-02T10:35:00Z,27.4980,-83.7220,21.7,1111122 
COMPS,ioos:station:USF.COMPS:C12:1,2019-01-02T11:05:00Z,27.4980,-83.7220,21.08,1111122 
COMPS,ioos:station:USF.COMPS:C12:1,2019-01-02T11:35:00Z,27.4980,-83.7220,20.83,1111122 
COMPS,ioos:station:USF.COMPS:C12:1,2019-01-02T12:05:00Z,27.4980,-83.7220,20.41,1111122 
COMPS,ioos:station:USF.COMPS:C12:1,2019-01-02T12:35:00Z,27.4980,-83.7220,20.17,1111122 
COMPS,ioos:station:USF.COMPS:C12:1,2019-01-02T13:05:00Z,27.4980,-83.7220,20.11,1111122 
COMPS,ioos:station:USF.COMPS:C12:1,2019-01-02T13:35:00Z,27.4980,-83.7220,20.33,1111122 
COMPS,ioos:station:USF.COMPS:C12:1,2019-01-02T14:05:00Z,27.4980,-83.7220,20.63,1111122 
COMPS,ioos:station:USF.COMPS:C12:1,2019-01-02T14:35:00Z,27.4980,-83.7220,20.89,1111122 
COMPS,ioos:station:USF.COMPS:C12:1,2019-01-02T15:05:00Z,27.4980,-83.7220,21.08,1111122 
COMPS,ioos:station:USF.COMPS:C12:1,2019-01-02T15:35:00Z,27.4980,-83.7220,21.2,1111122 
COMPS,ioos:station:USF.COMPS:C12:1,2019-01-02T16:05:00Z,27.4980,-83.7220,21.41,1111122 
COMPS,ioos:station:USF.COMPS:C12:1,2019-01-02T16:35:00Z,27.4980,-83.7220,21.52,1111122 
COMPS,ioos:station:USF.COMPS:C12:1,2019-01-02T17:05:00Z,27.4980,-83.7220,21.68,1111122 
COMPS,ioos:station:USF.COMPS:C12:1,2019-01-02T17:35:00Z,27.4980,-83.7220,21.74,1111122 
COMPS,ioos:station:USF.COMPS:C12:1,2019-01-02T18:05:00Z,27.4980,-83.7220,21.72,1111122 
COMPS,ioos:station:USF.COMPS:C12:1,2019-01-02T18:35:00Z,27.4980,-83.7220,21.78,1111122 
COMPS,ioos:station:USF.COMPS:C12:1,2019-01-02T19:05:00Z,27.4980,-83.7220,21.87,1111122 
COMPS,ioos:station:USF.COMPS:C12:1,2019-01-02T19:35:00Z,27.4980,-83.7220,22.0,1111122 
COMPS,ioos:station:USF.COMPS:C12:1,2019-01-02T20:05:00Z,27.4980,-83.7220,21.9,1111122 
COMPS,ioos:station:USF.COMPS:C12:1,2019-01-02T20:35:00Z,27.4980,-83.7220,22.08,1111122 
COMPS,ioos:station:USF.COMPS:C12:1,2019-01-02T21:05:00Z,27.4980,-83.7220,22.04,1111122 
COMPS,ioos:station:USF.COMPS:C12:1,2019-01-02T21:35:00Z,27.4980,-83.7220,22.16,1111122 
COMPS,ioos:station:USF.COMPS:C12:1,2019-01-02T22:05:00Z,27.4980,-83.7220,22.35,1111122 
COMPS,ioos:station:USF.COMPS:C12:1,2019-01-02T22:35:00Z,27.4980,-83.7220,22.31,1111122 
COMPS,ioos:station:USF.COMPS:C12:1,2019-01-02T23:05:00Z,27.4980,-83.7220,22.27,1111122 
COMPS,ioos:station:USF.COMPS:C12:1,2019-01-02T23:35:00Z,27.4980,-83.7220,22.27,1111122 
COMPS,ioos:station:USF.COMPS:C12:1,2019-01-03T00:05:00Z,27.4980,-83.7220,22.14,1111122 
COMPS,ioos:station:USF.COMPS:C12:1,2019-01-03T00:35:00Z,27.4980,-83.7220,22.02,1111122 
COMPS,ioos:station:USF.COMPS:C12:1,2019-01-03T01:05:00Z,27.4980,-83.7220,21.99,1111122 
COMPS,ioos:station:USF.COMPS:C12:1,2019-01-03T01:35:00Z,27.4980,-83.7220,22.08,1111122 
COMPS,ioos:station:USF.COMPS:C12:1,2019-01-03T02:05:00Z,27.4980,-83.7220,22.32,1111122 
COMPS,ioos:station:USF.COMPS:C12:1,2019-01-03T02:35:00Z,27.4980,-83.7220,22.51,1111122 
COMPS,ioos:station:USF.COMPS:C12:1,2019-01-03T03:05:00Z,27.4980,-83.7220,22.46,1111122 
COMPS,ioos:station:USF.COMPS:C12:1,2019-01-03T03:35:00Z,27.4980,-83.7220,22.33,1111122 
COMPS,ioos:station:USF.COMPS:C12:1,2019-01-03T04:05:00Z,27.4980,-83.7220,22.36,1111122 
COMPS,ioos:station:USF.COMPS:C12:1,2019-01-03T04:35:00Z,27.4980,-83.7220,22.36,1111122 
COMPS,ioos:station:USF.COMPS:C12:1,2019-01-03T05:05:00Z,27.4980,-83.7220,22.36,1111122 
COMPS,ioos:station:USF.COMPS:C12:1,2019-01-03T05:35:00Z,27.4980,-83.7220,22.36,1111122 
COMPS,ioos:station:USF.COMPS:C12:1,2019-01-03T06:05:00Z,27.4980,-83.7220,22.31,1111122 
COMPS,ioos:station:USF.COMPS:C12:1,2019-01-03T06:35:00Z,27.4980,-83.7220,22.42,1111122 
COMPS,ioos:station:USF.COMPS:C12:1,2019-01-03T07:05:00Z,27.4980,-83.7220,22.51,1111122 
COMPS,ioos:station:USF.COMPS:C12:1,2019-01-03T07:35:00Z,27.4980,-83.7220,22.55,1111122 
COMPS,ioos:station:USF.COMPS:C12:1,2019-01-03T08:05:00Z,27.4980,-83.7220,22.56,1111122 
COMPS,ioos:station:USF.COMPS:C12:1,2019-01-03T08:35:00Z,27.4980,-83.7220,22.48,1111122 
COMPS,ioos:station:USF.COMPS:C12:1,2019-01-03T09:05:00Z,27.4980,-83.7220,22.28,1111122 
COMPS,ioos:station:USF.COMPS:C12:1,2019-01-03T09:35:00Z,27.4980,-83.7220,22.16,1111122 
COMPS,ioos:station:USF.COMPS:C12:1,2019-01-03T10:05:00Z,27.4980,-83.7220,22.19,1111122 
COMPS,ioos:station:USF.COMPS:C12:1,2019-01-03T10:35:00Z,27.4980,-83.7220,22.17,1111122 
COMPS,ioos:station:USF.COMPS:C12:1,2019-01-03T11:05:00Z,27.4980,-83.7220,22.16,1111122 
COMPS,ioos:station:USF.COMPS:C12:1,2019-01-03T11:35:00Z,27.4980,-83.7220,22.26,1111122 
COMPS,ioos:station:USF.COMPS:C12:1,2019-01-03T12:05:00Z,27.4980,-83.7220,22.36,1111122 
COMPS,ioos:station:USF.COMPS:C12:1,2019-01-03T12:35:00Z,27.4980,-83.7220,22.43,1111122 
COMPS,ioos:station:USF.COMPS:C12:1,2019-01-03T13:05:00Z,27.4980,-83.7220,22.5,1111122 
COMPS,ioos:station:USF.COMPS:C12:1,2019-01-03T13:35:00Z,27.4980,-83.7220,22.55,1111122 
COMPS,ioos:station:USF.COMPS:C12:1,2019-01-03T14:05:00Z,27.4980,-83.7220,22.64,1111122 
COMPS,ioos:station:USF.COMPS:C12:1,2019-01-03T14:35:00Z,27.4980,-83.7220,22.74,1111122 
COMPS,ioos:station:USF.COMPS:C12:1,2019-01-03T15:05:00Z,27.4980,-83.7220,22.65,1111122 
COMPS,ioos:station:USF.COMPS:C12:1,2019-01-03T15:35:00Z,27.4980,-83.7220,22.63,1111122 
COMPS,ioos:station:USF.COMPS:C12:1,2019-01-03T16:05:00Z,27.4980,-83.7220,22.58,1111122 
COMPS,ioos:station:USF.COMPS:C12:1,2019-01-03T16:35:00Z,27.4980,-83.7220,22.51,1111122 
COMPS,ioos:station:USF.COMPS:C12:1,2019-01-03T17:05:00Z,27.4980,-83.7220,22.47,1111122 
COMPS,ioos:station:USF.COMPS:C12:1,2019-01-03T17:35:00Z,27.4980,-83.7220,22.44,1111122 
COMPS,ioos:station:USF.COMPS:C12:1,2019-01-03T18:05:00Z,27.4980,-83.7220,22.49,1111122 
COMPS,ioos:station:USF.COMPS:C12:1,2019-01-03T18:35:00Z,27.4980,-83.7220,22.56,1111122 
COMPS,ioos:station:USF.COMPS:C12:1,2019-01-03T19:05:00Z,27.4980,-83.7220,22.59,1111122 
COMPS,ioos:station:USF.COMPS:C12:1,2019-01-03T19:35:00Z,27.4980,-83.7220,22.63,1111122 
COMPS,ioos:station:USF.COMPS:C12:1,2019-01-03T20:05:00Z,27.4980,-83.7220,22.64,1111122 
COMPS,ioos:station:USF.COMPS:C12:1,2019-01-03T20:35:00Z,27.4980,-83.7220,22.71,1111122 
COMPS,ioos:station:USF.COMPS:C12:1,2019-01-03T21:05:00Z,27.4980,-83.7220,22.59,1111122 
COMPS,ioos:station:USF.COMPS:C12:1,2019-01-03T21:35:00Z,27.4980,-83.7220,22.59,1111122 
COMPS,ioos:station:USF.COMPS:C12:1,2019-01-03T22:05:00Z,27.4980,-83.7220,22.64,1111122 
COMPS,ioos:station:USF.COMPS:C12:1,2019-01-03T22:35:00Z,27.4980,-83.7220,22.54,1111122 
COMPS,ioos:station:USF.COMPS:C12:1,2019-01-03T23:05:00Z,27.4980,-83.7220,22.4,1111122 
COMPS,ioos:station:USF.COMPS:C12:1,2019-01-03T23:35:00Z,27.4980,-83.7220,22.39,1111122 
COMPS,ioos:station:USF.COMPS:C12:1,2019-01-04T00:05:00Z,27.4980,-83.7220,22.41,1111122 
COMPS,ioos:station:USF.COMPS:C12:1,2019-01-04T00:35:00Z,27.4980,-83.7220,22.17,1111122 
COMPS,ioos:station:USF.COMPS:C12:1,2019-01-04T01:05:00Z,27.4980,-83.7220,22.12,1111122 
COMPS,ioos:station:USF.COMPS:C12:1,2019-01-04T01:35:00Z,27.4980,-83.7220,22.25,1111122 
COMPS,ioos:station:USF.COMPS:C12:1,2019-01-04T02:05:00Z,27.4980,-83.7220,22.17,1111122 
COMPS,ioos:station:USF.COMPS:C12:1,2019-01-04T02:35:00Z,27.4980,-83.7220,21.92,1111122 
COMPS,ioos:station:USF.COMPS:C12:1,2019-01-04T03:05:00Z,27.4980,-83.7220,21.94,1111122 
COMPS,ioos:station:USF.COMPS:C12:1,2019-01-04T03:35:00Z,27.4980,-83.7220,22.23,1111122 
COMPS,ioos:station:USF.COMPS:C12:1,2019-01-04T04:05:00Z,27.4980,-83.7220,22.35,1111122 
COMPS,ioos:station:USF.COMPS:C12:1,2019-01-04T04:35:00Z,27.4980,-83.7220,22.38,1111122 
COMPS,ioos:station:USF.COMPS:C12:1,2019-01-04T05:05:00Z,27.4980,-83.7220,22.44,1111122 
COMPS,ioos:station:USF.COMPS:C12:1,2019-01-04T05:35:00Z,27.4980,-83.7220,22.52,1111122 
COMPS,ioos:station:USF.COMPS:C12:1,2019-01-04T06:05:00Z,27.4980,-83.7220,22.51,1111122 
COMPS,ioos:station:USF.COMPS:C12:1,2019-01-04T06:35:00Z,27.4980,-83.7220,22.55,1111122 
COMPS,ioos:station:USF.COMPS:C12:1,2019-01-04T07:05:00Z,27.4980,-83.7220,22.54,1111122 
COMPS,ioos:station:USF.COMPS:C12:1,2019-01-04T07:35:00Z,27.4980,-83.7220,22.45,1111122 
COMPS,ioos:station:USF.COMPS:C12:1,2019-01-04T08:05:00Z,27.4980,-83.7220,22.44,1111122 
COMPS,ioos:station:USF.COMPS:C12:1,2019-01-04T08:35:00Z,27.4980,-83.7220,22.43,1111122 
COMPS,ioos:station:USF.COMPS:C12:1,2019-01-04T09:05:00Z,27.4980,-83.7220,22.38,1111122 
COMPS,ioos:station:USF.COMPS:C12:1,2019-01-04T09:35:00Z,27.4980,-83.7220,22.27,1111122 
COMPS,ioos:station:USF.COMPS:C12:1,2019-01-04T10:05:00Z,27.4980,-83.7220,22.24,1111122 
COMPS,ioos:station:USF.COMPS:C12:1,2019-01-04T10:35:00Z,27.4980,-83.7220,22.31,1111122 
COMPS,ioos:station:USF.COMPS:C12:1,2019-01-04T11:05:00Z,27.4980,-83.7220,22.19,1111122 
COMPS,ioos:station:USF.COMPS:C12:1,2019-01-04T11:35:00Z,27.4980,-83.7220,22.17,1111122 
COMPS,ioos:station:USF.COMPS:C12:1,2019-01-04T12:05:00Z,27.4980,-83.7220,22.21,1111122 
COMPS,ioos:station:USF.COMPS:C12:1,2019-01-04T12:35:00Z,27.4980,-83.7220,22.24,1111122 
COMPS,ioos:station:USF.COMPS:C12:1,2019-01-04T13:05:00Z,27.4980,-83.7220,22.26,1111122 
COMPS,ioos:station:USF.COMPS:C12:1,2019-01-04T13:35:00Z,27.4980,-83.7220,22.38,1111122 
COMPS,ioos:station:USF.COMPS:C12:1,2019-01-04T14:05:00Z,27.4980,-83.7220,22.57,1111122 
COMPS,ioos:station:USF.COMPS:C12:1,2019-01-04T14:35:00Z,27.4980,-83.7220,22.72,1111122 
COMPS,ioos:station:USF.COMPS:C12:1,2019-01-04T15:05:00Z,27.4980,-83.7220,22.79,1111122 
COMPS,ioos:station:USF.COMPS:C12:1,2019-01-04T15:35:00Z,27.4980,-83.7220,22.95,1111122 
COMPS,ioos:station:USF.COMPS:C12:1,2019-01-04T16:05:00Z,27.4980,-83.7220,23.07,1111122 
COMPS,ioos:station:USF.COMPS:C12:1,2019-01-04T16:35:00Z,27.4980,-83.7220,23.06,1111122 
COMPS,ioos:station:USF.COMPS:C12:1,2019-01-04T17:05:00Z,27.4980,-83.7220,23.05,1111122 
COMPS,ioos:station:USF.COMPS:C12:1,2019-01-04T17:35:00Z,27.4980,-83.7220,23.11,1111122 
COMPS,ioos:station:USF.COMPS:C12:1,2019-01-04T18:05:00Z,27.4980,-83.7220,23.05,1111122 
COMPS,ioos:station:USF.COMPS:C12:1,2019-01-04T18:35:00Z,27.4980,-83.7220,23.07,1111122 
COMPS,ioos:station:USF.COMPS:C12:1,2019-01-04T19:05:00Z,27.4980,-83.7220,20.31,1111122 
COMPS,ioos:station:USF.COMPS:C12:1,2019-01-04T19:35:00Z,27.4980,-83.7220,19.58,1111122 
COMPS,ioos:station:USF.COMPS:C12:1,2019-01-04T20:05:00Z,27.4980,-83.7220,19.06,1111122 
COMPS,ioos:station:USF.COMPS:C12:1,2019-01-04T20:35:00Z,27.4980,-83.7220,18.53,1111122 
COMPS,ioos:station:USF.COMPS:C12:1,2019-01-04T21:05:00Z,27.4980,-83.7220,18.51,1111122 
COMPS,ioos:station:USF.COMPS:C12:1,2019-01-04T21:35:00Z,27.4980,-83.7220,18.94,1111122 
COMPS,ioos:station:USF.COMPS:C12:1,2019-01-04T22:05:00Z,27.4980,-83.7220,18.79,1111122 
COMPS,ioos:station:USF.COMPS:C12:1,2019-01-04T22:35:00Z,27.4980,-83.7220,19.37,1111122 
COMPS,ioos:station:USF.COMPS:C12:1,2019-01-04T23:05:00Z,27.4980,-83.7220,19.33,1111122 
COMPS,ioos:station:USF.COMPS:C12:1,2019-01-04T23:35:00Z,27.4980,-83.7220,19.48,1111122 
COMPS,ioos:station:USF.COMPS:C12:1,2019-01-05T00:05:00Z,27.4980,-83.7220,20.08,1111122 
COMPS,ioos:station:USF.COMPS:C12:1,2019-01-05T00:35:00Z,27.4980,-83.7220,20.04,1111122 
COMPS,ioos:station:USF.COMPS:C12:1,2019-01-05T01:05:00Z,27.4980,-83.7220,20.13,1111122 
COMPS,ioos:station:USF.COMPS:C12:1,2019-01-05T01:35:00Z,27.4980,-83.7220,20.39,1111122 
COMPS,ioos:station:USF.COMPS:C12:1,2019-01-05T02:05:00Z,27.4980,-83.7220,20.44,1111122 
COMPS,ioos:station:USF.COMPS:C12:1,2019-01-05T02:35:00Z,27.4980,-83.7220,20.46,1111122 
COMPS,ioos:station:USF.COMPS:C12:1,2019-01-05T03:05:00Z,27.4980,-83.7220,20.35,1111122 
COMPS,ioos:station:USF.COMPS:C12:1,2019-01-05T03:35:00Z,27.4980,-83.7220,20.37,1111122 
COMPS,ioos:station:USF.COMPS:C12:1,2019-01-05T04:05:00Z,27.4980,-83.7220,20.29,1111122 
COMPS,ioos:station:USF.COMPS:C12:1,2019-01-05T04:35:00Z,27.4980,-83.7220,20.23,1111122 
COMPS,ioos:station:USF.COMPS:C12:1,2019-01-05T05:05:00Z,27.4980,-83.7220,20.06,1111122 
COMPS,ioos:station:USF.COMPS:C12:1,2019-01-05T05:35:00Z,27.4980,-83.7220,19.09,1111122 
COMPS,ioos:station:USF.COMPS:C12:1,2019-01-05T06:05:00Z,27.4980,-83.7220,19.79,1111122 
COMPS,ioos:station:USF.COMPS:C12:1,2019-01-05T06:35:00Z,27.4980,-83.7220,19.8,1111122 
COMPS,ioos:station:USF.COMPS:C12:1,2019-01-05T07:05:00Z,27.4980,-83.7220,19.86,1111122 
COMPS,ioos:station:USF.COMPS:C12:1,2019-01-05T07:35:00Z,27.4980,-83.7220,19.88,1111122 
COMPS,ioos:station:USF.COMPS:C12:1,2019-01-05T08:05:00Z,27.4980,-83.7220,20.07,1111122 
COMPS,ioos:station:USF.COMPS:C12:1,2019-01-05T08:35:00Z,27.4980,-83.7220,20.12,1111122 
COMPS,ioos:station:USF.COMPS:C12:1,2019-01-05T09:05:00Z,27.4980,-83.7220,20.39,1111122 
COMPS,ioos:station:USF.COMPS:C12:1,2019-01-05T09:35:00Z,27.4980,-83.7220,20.63,1111122 
COMPS,ioos:station:USF.COMPS:C12:1,2019-01-05T10:05:00Z,27.4980,-83.7220,20.66,1111122 
COMPS,ioos:station:USF.COMPS:C12:1,2019-01-05T10:35:00Z,27.4980,-83.7220,20.7,1111122 
COMPS,ioos:station:USF.COMPS:C12:1,2019-01-05T11:05:00Z,27.4980,-83.7220,20.73,1111122 
COMPS,ioos:station:USF.COMPS:C12:1,2019-01-05T11:35:00Z,27.4980,-83.7220,20.45,1111122 
COMPS,ioos:station:USF.COMPS:C12:1,2019-01-05T12:05:00Z,27.4980,-83.7220,20.34,1111122 
COMPS,ioos:station:USF.COMPS:C12:1,2019-01-05T12:35:00Z,27.4980,-83.7220,19.88,1111122 
COMPS,ioos:station:USF.COMPS:C12:1,2019-01-05T13:05:00Z,27.4980,-83.7220,19.66,1111122 
COMPS,ioos:station:USF.COMPS:C12:1,2019-01-05T13:35:00Z,27.4980,-83.7220,19.44,1111122 
COMPS,ioos:station:USF.COMPS:C12:1,2019-01-05T14:05:00Z,27.4980,-83.7220,19.47,1111122 
COMPS,ioos:station:USF.COMPS:C12:1,2019-01-05T14:35:00Z,27.4980,-83.7220,19.49,1111122 
COMPS,ioos:station:USF.COMPS:C12:1,2019-01-05T15:05:00Z,27.4980,-83.7220,19.35,1111122 
COMPS,ioos:station:USF.COMPS:C12:1,2019-01-05T15:35:00Z,27.4980,-83.7220,18.9,1111122 
COMPS,ioos:station:USF.COMPS:C12:1,2019-01-05T16:05:00Z,27.4980,-83.7220,18.64,1111122 
COMPS,ioos:station:USF.COMPS:C12:1,2019-01-05T16:35:00Z,27.4980,-83.7220,18.06,1111122 
COMPS,ioos:station:USF.COMPS:C12:1,2019-01-05T17:05:00Z,27.4980,-83.7220,18.2,1111122 
COMPS,ioos:station:USF.COMPS:C12:1,2019-01-05T17:35:00Z,27.4980,-83.7220,17.85,1111122 
COMPS,ioos:station:USF.COMPS:C12:1,2019-01-05T18:05:00Z,27.4980,-83.7220,18.36,1111122 
COMPS,ioos:station:USF.COMPS:C12:1,2019-01-05T18:35:00Z,27.4980,-83.7220,18.31,1111122 
COMPS,ioos:station:USF.COMPS:C12:1,2019-01-05T19:05:00Z,27.4980,-83.7220,18.03,1111122 
COMPS,ioos:station:USF.COMPS:C12:1,2019-01-05T19:35:00Z,27.4980,-83.7220,17.88,1111122 
COMPS,ioos:station:USF.COMPS:C12:1,2019-01-05T20:05:00Z,27.4980,-83.7220,18.08,1111122 
COMPS,ioos:station:USF.COMPS:C12:1,2019-01-05T20:35:00Z,27.4980,-83.7220,17.88,1111122 
COMPS,ioos:station:USF.COMPS:C12:1,2019-01-05T21:05:00Z,27.4980,-83.7220,17.94,1111122 
COMPS,ioos:station:USF.COMPS:C12:1,2019-01-05T21:35:00Z,27.4980,-83.7220,17.49,1111122 
COMPS,ioos:station:USF.COMPS:C12:1,2019-01-05T22:05:00Z,27.4980,-83.7220,17.09,1111122 
COMPS,ioos:station:USF.COMPS:C12:1,2019-01-05T22:35:00Z,27.4980,-83.7220,16.98,1111122 
COMPS,ioos:station:USF.COMPS:C12:1,2019-01-05T23:05:00Z,27.4980,-83.7220,16.65,1111122 
COMPS,ioos:station:USF.COMPS:C12:1,2019-01-05T23:35:00Z,27.4980,-83.7220,16.59,1111122 
COMPS,ioos:station:USF.COMPS:C12:1,2019-01-06T00:05:00Z,27.4980,-83.7220,16.62,1111122 
COMPS,ioos:station:USF.COMPS:C12:1,2019-01-06T00:35:00Z,27.4980,-83.7220,16.25,1111122 
COMPS,ioos:station:USF.COMPS:C12:1,2019-01-06T01:05:00Z,27.4980,-83.7220,15.98,1111122 
COMPS,ioos:station:USF.COMPS:C12:1,2019-01-06T01:35:00Z,27.4980,-83.7220,16.03,1111122 
COMPS,ioos:station:USF.COMPS:C12:1,2019-01-06T02:05:00Z,27.4980,-83.7220,15.98,1111122 
COMPS,ioos:station:USF.COMPS:C12:1,2019-01-06T02:35:00Z,27.4980,-83.7220,16.09,1111122 
COMPS,ioos:station:USF.COMPS:C12:1,2019-01-06T03:05:00Z,27.4980,-83.7220,16.18,1111122 
COMPS,ioos:station:USF.COMPS:C12:1,2019-01-06T03:35:00Z,27.4980,-83.7220,16.2,1111122 
COMPS,ioos:station:USF.COMPS:C12:1,2019-01-06T04:05:00Z,27.4980,-83.7220,16.28,1111122 
COMPS,ioos:station:USF.COMPS:C12:1,2019-01-06T04:35:00Z,27.4980,-83.7220,16.52,1111122 
COMPS,ioos:station:USF.COMPS:C12:1,2019-01-06T05:05:00Z,27.4980,-83.7220,16.55,1111122 
COMPS,ioos:station:USF.COMPS:C12:1,2019-01-06T05:35:00Z,27.4980,-83.7220,16.59,1111122 
COMPS,ioos:station:USF.COMPS:C12:1,2019-01-06T06:05:00Z,27.4980,-83.7220,16.59,1111122 
COMPS,ioos:station:USF.COMPS:C12:1,2019-01-06T06:35:00Z,27.4980,-83.7220,16.7,1111122 
COMPS,ioos:station:USF.COMPS:C12:1,2019-01-06T07:05:00Z,27.4980,-83.7220,16.65,1111122 
COMPS,ioos:station:USF.COMPS:C12:1,2019-01-06T07:35:00Z,27.4980,-83.7220,16.74,1111122 
COMPS,ioos:station:USF.COMPS:C12:1,2019-01-06T08:05:00Z,27.4980,-83.7220,16.78,1111122 
COMPS,ioos:station:USF.COMPS:C12:1,2019-01-06T08:35:00Z,27.4980,-83.7220,16.9,1111122 
COMPS,ioos:station:USF.COMPS:C12:1,2019-01-06T09:05:00Z,27.4980,-83.7220,16.98,1111122 
COMPS,ioos:station:USF.COMPS:C12:1,2019-01-06T09:35:00Z,27.4980,-83.7220,17.11,1111122 
COMPS,ioos:station:USF.COMPS:C12:1,2019-01-06T10:05:00Z,27.4980,-83.7220,17.28,1111122 
COMPS,ioos:station:USF.COMPS:C12:1,2019-01-06T10:35:00Z,27.4980,-83.7220,17.36,1111122 
COMPS,ioos:station:USF.COMPS:C12:1,2019-01-06T11:05:00Z,27.4980,-83.7220,17.28,1111122 
COMPS,ioos:station:USF.COMPS:C12:1,2019-01-06T11:35:00Z,27.4980,-83.7220,17.26,1111122 
COMPS,ioos:station:USF.COMPS:C12:1,2019-01-06T12:05:00Z,27.4980,-83.7220,17.12,1111122 
COMPS,ioos:station:USF.COMPS:C12:1,2019-01-06T12:35:00Z,27.4980,-83.7220,17.1,1111122 
COMPS,ioos:station:USF.COMPS:C12:1,2019-01-06T13:05:00Z,27.4980,-83.7220,17.22,1111122 
COMPS,ioos:station:USF.COMPS:C12:1,2019-01-06T13:35:00Z,27.4980,-83.7220,17.3,1111122 
COMPS,ioos:station:USF.COMPS:C12:1,2019-01-06T14:05:00Z,27.4980,-83.7220,17.55,1111122 
COMPS,ioos:station:USF.COMPS:C12:1,2019-01-06T14:35:00Z,27.4980,-83.7220,17.45,1111122 
COMPS,ioos:station:USF.COMPS:C12:1,2019-01-06T15:05:00Z,27.4980,-83.7220,17.48,1111122 
COMPS,ioos:station:USF.COMPS:C12:1,2019-01-06T15:35:00Z,27.4980,-83.7220,17.38,1111122 